FW7275 Weather Reports


Display with metric or nautical units.
time (UTC)temp
F
wind
direction
speed
MPH
gust
MPH
rain 1hr
in
rain 24hr
in
rain mn
in
humidity
%
barometer
mb
20260906164026 74 0 0.0 0.0 0.00 0.00 0.00 48
20260906163035 75 0 0.0 0.0 0.00 0.00 0.00 47
20260906162021 78 0 0.0 0.0 0.00 0.00 0.00 43
20260906161034 78 0 0.0 0.0 0.00 0.00 0.00 43
20260906160038 78 0 0.0 0.0 0.00 0.00 0.00 43
20260906155027 77 0 0.0 0.0 0.00 0.00 0.00 41
20260906154030 78 0 0.0 0.0 0.00 0.00 0.00 43
20260906153022 78 0 0.0 0.0 0.00 0.00 0.00 43
20260906152022 78 0 0.0 0.0 0.00 0.00 0.00 43
20260906151025 78 0 0.0 0.0 0.00 0.00 0.00 44
20260906150038 78 0 0.0 0.0 0.00 0.00 0.00 44
20260906145026 79 0 0.0 0.0 0.00 0.00 0.00 43
20260906144018 79 0 0.0 0.0 0.00 0.00 0.00 43
20260906143036 80 0 0.0 0.0 0.00 0.00 0.00 43
20260906142020 80 0 0.0 0.0 0.00 0.00 0.00 44
20260906141033 79 0 0.0 0.0 0.00 0.00 0.00 43
20260906140030 80 0 0.0 0.0 0.00 0.00 0.00 44
20260906135033 80 0 0.0 0.0 0.00 0.00 0.00 44
20260906134021 81 0 0.0 0.0 0.00 0.00 0.00 45
20260906133028 81 0 0.0 0.0 0.00 0.00 0.00 45
20260906132025 81 0 0.0 0.0 0.00 0.00 0.00 44
20260906131022 80 0 0.0 0.0 0.00 0.00 0.00 46
20260906130034 80 0 0.0 0.0 0.00 0.00 0.00 46
20260906125023 79 0 0.0 0.0 0.00 0.00 0.00 47
20260906124025 79 0 0.0 0.0 0.00 0.00 0.00 48
20260906121034 79 0 0.0 0.0 0.00 0.00 0.00 48
20260906120028 79 0 0.0 0.0 0.00 0.00 0.00 48
20260906115029 78 0 0.0 0.0 0.00 0.00 0.00 48
20260906113042 78 0 0.0 0.0 0.00 0.00 0.00 48
20260906112034 77 0 0.0 0.0 0.00 0.00 0.00 49
20260906111021 78 0 0.0 0.0 0.00 0.00 0.00 49
20260906110044 78 0 0.0 0.0 0.00 0.00 0.00 49
20260906105024 76 0 0.0 0.0 0.00 0.00 0.00 52
20260906104020 76 0 0.0 0.0 0.00 0.00 0.00 52
20260906103036 76 0 0.0 0.0 0.00 0.00 0.00 53
20260906102028 75 0 0.0 0.0 0.00 0.00 0.00 54
20260906101018 75 0 0.0 0.0 0.00 0.00 0.00 55
20260906100031 75 0 0.0 0.0 0.00 0.00 0.00 55
20260906095022 74 0 0.0 0.0 0.00 0.00 0.00 55
20260906094021 74 0 0.0 0.0 0.00 0.00 0.00 55
20260906093035 74 0 0.0 0.0 0.00 0.00 0.00 56
20260906092030 74 0 0.0 0.0 0.00 0.00 0.00 57
20260906091024 74 0 0.0 0.0 0.00 0.00 0.00 55
20260906090024 73 0 0.0 0.0 0.00 0.00 0.00 55
20260906085035 72 0 0.0 0.0 0.00 0.00 0.00 56
20260906084024 72 0 0.0 0.0 0.00 0.00 0.00 57
20260906083033 71 0 0.0 0.0 0.00 0.00 0.00 57
20260906082031 71 0 0.0 0.0 0.00 0.00 0.00 59
20260906075017 70 0 0.0 0.0 0.00 0.00 0.00 63
20260906074034 71 0 0.0 0.0 0.00 0.00 0.00 64
20260906073031 70 0 0.0 0.0 0.00 0.00 0.00 66
20260906072024 68 0 0.0 0.0 0.00 0.00 0.00 68
20260906071019 69 0 0.0 0.0 0.00 0.00 0.00 68
20260906070039 68 0 0.0 0.0 0.00 0.00 0.00 71
20260906065031 66 0 0.0 0.0 0.00 0.00 0.00 77
20260906064022 66 0 0.0 0.0 0.00 0.00 0.00 80
20260906063023 62 0 0.0 0.0 0.00 0.00 0.00 86
20260906062022 60 0 0.0 0.0 0.00 0.00 0.00 90
20260906061019 55 0 0.0 0.0 0.00 0.00 0.00 92
20260906055023 54 0 0.0 0.0 0.00 0.00 0.00 92
20260906054020 54 0 0.0 0.0 0.00 0.00 0.00 92
20260906053035 54 0 0.0 0.0 0.00 0.00 0.00 92
20260906052026 54 0 0.0 0.0 0.00 0.00 0.00 92
20260906050027 54 0 0.0 0.0 0.00 0.00 0.00 92
20260906045031 54 0 0.0 0.0 0.00 0.00 0.00 91
20260906044025 54 0 0.0 0.0 0.00 0.00 0.00 91
20260906043028 55 0 0.0 0.0 0.00 0.00 0.00 91
20260906042026 55 0 0.0 0.0 0.00 0.00 0.00 91
20260906041018 56 0 0.0 0.0 0.00 0.00 0.00 91
20260906035028 56 0 0.0 0.0 0.00 0.00 0.00 91
20260906034034 56 0 0.0 0.0 0.00 0.00 0.00 91
20260906033027 56 0 0.0 0.0 0.00 0.00 0.00 91
20260906031023 55 0 0.0 0.0 0.00 0.00 0.00 91
20260906030031 55 0 0.0 0.0 0.00 0.00 0.00 91
20260906025017 55 0 0.0 0.0 0.00 0.00 0.00 91
20260906024017 55 0 0.0 0.0 0.00 0.00 0.00 91
20260906023025 55 0 0.0 0.0 0.00 0.00 0.00 91
20260906022024 55 0 0.0 0.0 0.00 0.00 0.00 91
20260906021026 55 0 0.0 0.0 0.00 0.00 0.00 91
20260906020038 55 0 0.0 0.0 0.00 0.00 0.00 91
20260906015024 55 0 0.0 0.0 0.00 0.00 0.00 90
20260906014034 56 0 0.0 0.0 0.00 0.00 0.00 90
20260906013019 56 0 0.0 0.0 0.00 0.00 0.00 90
20260906010037 57 0 0.0 0.0 0.00 0.00 0.00 89
20260906005028 57 0 0.0 0.0 0.00 0.00 0.00 89
20260906004019 57 0 0.0 0.0 0.00 0.00 0.00 89
20260906003024 58 0 0.0 0.0 0.00 0.00 0.00 89
20260906001027 59 0 0.0 0.0 0.00 0.00 0.00 89
20260906000030 59 0 0.0 0.0 0.00 0.00 0.00 89
20260905235020 59 0 0.0 0.0 0.00 0.00 0.16 89
20260905234031 59 0 0.0 0.0 0.00 0.00 0.16 89
20260905233031 58 0 0.0 0.0 0.00 0.00 0.16 89
20260905232022 58 0 0.0 0.0 0.00 0.00 0.16 89
20260905230034 57 0 0.0 0.0 0.00 0.00 0.16 88
20260905225020 57 0 0.0 0.0 0.00 0.00 0.16 88
20260905224033 57 0 0.0 0.0 0.00 0.00 0.16 88
20260905223025 57 0 0.0 0.0 0.00 0.00 0.16 88
20260905222033 58 0 0.0 0.0 0.00 0.00 0.16 88
20260905221028 58 0 0.0 0.0 0.00 0.00 0.16 87
20260905215024 59 0 0.0 0.0 0.00 0.00 0.16 86
20260905213031 60 0 0.0 0.0 0.00 0.00 0.16 86
20260905211031 61 0 0.0 0.0 0.00 0.00 0.16 84
20260905210034 62 0 0.0 0.0 0.00 0.00 0.16 83
20260905205027 63 0 0.0 0.0 0.00 0.00 0.16 83
20260905203033 64 0 0.0 0.0 0.00 0.00 0.16 80
20260905202032 64 0 0.0 0.0 0.00 0.00 0.16 80
20260905201024 65 0 0.0 0.0 0.00 0.00 0.16 79
20260905200031 66 0 0.0 0.0 0.00 0.00 0.16 78
20260905195025 66 0 0.0 0.0 0.00 0.00 0.16 78
20260905194030 66 0 0.0 0.0 0.00 0.00 0.16 78
20260905193027 66 0 0.0 0.0 0.00 0.00 0.16 79
20260905192026 66 0 0.0 0.0 0.00 0.00 0.16 80
20260905191024 66 0 0.0 0.0 0.00 0.00 0.16 81
20260905185021 66 0 0.0 0.0 0.00 0.00 0.16 83
20260905184031 65 0 0.0 0.0 0.00 0.00 0.16 83
20260905183025 65 0 0.0 0.0 0.00 0.00 0.16 83
20260905182025 66 0 0.0 0.0 0.00 0.00 0.16 82
20260905181020 66 0 0.0 0.0 0.00 0.00 0.16 81
20260905175022 68 0 0.0 0.0 0.00 0.00 0.16 80
20260905174027 68 0 0.0 0.0 0.00 0.00 0.16 79
20260905173036 69 0 0.0 0.0 0.00 0.00 0.16 78
20260905172023 69 0 0.0 0.0 0.00 0.00 0.16 77
20260905171020 70 0 0.0 0.0 0.00 0.00 0.16 75
20260905170035 72 0 0.0 0.0 0.00 0.00 0.16 73
20260905165029 72 0 0.0 0.0 0.00 0.00 0.16 72